Weather History for PARC - May, 2013

Change the Weather History Date:

Friday, May 17, 2013

  Actual Average Record
Temperature  
Mean Temperature 37 °F -  
Max Temperature 41 °F 46 °F 64 °F (1993)
Min Temperature 33 °F 26 °F 8 °F (2001)
Degree Days  
Heating Degree Days 28    
Moisture  
Dew Point 29 °F    
Average Humidity 75    
Maximum Humidity 100    
Minimum Humidity 48    
Precipitation  
Precipitation 0.03 in - - ()
Sea Level Pressure  
Sea Level Pressure 29.40 in    
Wind  
Wind Speed 6 mph (NE)    
Max Wind Speed 15 mph    
Max Gust Speed 20 mph    
Visibility 9 miles    
Events      
Averages and records for this station are not official NWS values.
T = Trace of Precipitation, MM = Missing Value Source: NWS Daily Summary

Daily Weather History Graph

Daily Weather History Graph

Search for Another Location

Airport or City:

Trip Planner

Search our weather history database for the weather conditions in past years. The results will help you decide how hot, cold, wet, or windy it might be!

Date:

Astronomy

May. 17, 2013 Rise Set
Actual Time 3:11 AM AKDT 12:11 AM AKDT
Civil Twilight Sun does not set Sun does not set
Nautical Twilight Sun does not set Sun does not set
Astronomical Twilight Sun does not set Sun does not set
Moon 12:03 PM AKDT (5/17) 3:03 AM AKDT (5/17)
Length of Visible Light 24h 00m
Length of Day
20h 59m
Waxing Crescent, 46% of the Moon is Illuminated
May 17
Waxing Crescent
May 17
First Quarter
May 24
Full
May 31
Last Quarter
Jun 8
New

Hourly Weather History & Observations

Time (AKDT) Temp. Windchill Dew Point Humidity Pressure Visibility Wind Dir Wind Speed Gust Speed Precip Events Conditions
12:16 AM 33.8 °F 28.6 °F 21.2 °F 60% 29.43 in 10.0 mi North 5.8 mph - N/A   Mostly Cloudy
12:36 AM 33.8 °F 28.6 °F 19.4 °F 56% 29.42 in 10.0 mi NNE 5.8 mph - N/A   Overcast
12:56 AM 33.8 °F 28.6 °F 21.2 °F 60% 29.42 in 10.0 mi NNE 5.8 mph - N/A   Overcast
1:16 AM 33.8 °F 28.6 °F 21.2 °F 60% 29.41 in 10.0 mi North 5.8 mph - N/A   Overcast
1:36 AM 33.8 °F 28.6 °F 19.4 °F 56% 29.41 in 10.0 mi NNE 5.8 mph - N/A   Mostly Cloudy
1:56 AM 33.8 °F 27.7 °F 21.2 °F 60% 29.40 in 10.0 mi North 6.9 mph - N/A   Overcast
2:16 AM 37.4 °F 33.8 °F 21.2 °F 52% 29.41 in 10.0 mi South 4.6 mph 18.4 mph N/A   Overcast
2:36 AM 35.6 °F 28.6 °F 21.2 °F 56% 29.40 in 10.0 mi SSE 9.2 mph - N/A   Mostly Cloudy
2:56 AM 35.6 °F 27.5 °F 26.6 °F 70% 29.40 in 10.0 mi SSE 11.5 mph 16.1 mph N/A   Scattered Clouds
3:16 AM 35.6 °F 27.5 °F 26.6 °F 70% 29.41 in 10.0 mi SSE 11.5 mph - N/A   Mostly Cloudy
3:36 AM 35.6 °F 26.2 °F 24.8 °F 65% 29.41 in 10.0 mi SSE 15.0 mph 18.4 mph N/A   Mostly Cloudy
3:56 AM 35.6 °F 27.5 °F 28.4 °F 75% 29.41 in 10.0 mi SSE 11.5 mph 19.6 mph N/A   Mostly Cloudy
4:16 AM 33.8 °F 24.8 °F 28.4 °F 81% 29.41 in 10.0 mi SSE 12.7 mph - N/A   Overcast
4:36 AM 33.8 °F 29.6 °F 30.2 °F 87% 29.41 in 10.0 mi South 4.6 mph - N/A   Overcast
4:56 AM 35.6 °F - 28.4 °F 75% 29.40 in 10.0 mi Calm Calm - N/A   Overcast
5:16 AM 35.6 °F 31.7 °F 28.4 °F 75% 29.40 in 10.0 mi NE 4.6 mph - N/A   Overcast
5:36 AM 35.6 °F 32.8 °F 28.4 °F 75% 29.40 in 10.0 mi ENE 3.5 mph - N/A   Overcast
5:56 AM 35.6 °F 30.7 °F 28.4 °F 75% 29.40 in 10.0 mi NNE 5.8 mph - N/A   Overcast
6:16 AM 33.8 °F 26.4 °F 28.4 °F 81% 29.40 in 10.0 mi NNE 9.2 mph - N/A   Overcast
6:36 AM 33.8 °F 27.0 °F 30.2 °F 87% 29.39 in 10.0 mi NE 8.1 mph - N/A   Overcast
6:56 AM 35.6 °F 29.9 °F 28.4 °F 75% 29.39 in 10.0 mi NE 6.9 mph - N/A   Overcast
7:16 AM 35.6 °F 29.2 °F 28.4 °F 75% 29.39 in 10.0 mi NE 8.1 mph - N/A   Overcast
7:36 AM 35.6 °F 29.2 °F 26.6 °F 70% 29.39 in 10.0 mi NNE 8.1 mph - N/A   Overcast
7:56 AM 35.6 °F 28.6 °F 26.6 °F 70% 29.39 in 10.0 mi NNE 9.2 mph - N/A   Overcast
8:16 AM 37.4 °F 32.1 °F 26.6 °F 65% 29.39 in 10.0 mi NNE 6.9 mph - N/A   Overcast
8:36 AM 37.4 °F 31.4 °F 24.8 °F 60% 29.40 in 10.0 mi NE 8.1 mph - N/A   Overcast
8:56 AM 37.4 °F 31.4 °F 19.4 °F 48% 29.40 in 10.0 mi East 8.1 mph - N/A   Overcast
9:16 AM 37.4 °F 32.8 °F 24.8 °F 60% 29.40 in 10.0 mi NE 5.8 mph - N/A   Overcast
9:36 AM 37.4 °F 32.1 °F 23.0 °F 56% 29.39 in 10.0 mi NNE 6.9 mph - N/A   Overcast
9:56 AM 37.4 °F 31.4 °F 23.0 °F 56% 29.39 in 10.0 mi NNE 8.1 mph - N/A   Overcast
10:16 AM 37.4 °F 32.1 °F 24.8 °F 60% 29.39 in 10.0 mi North 6.9 mph - N/A   Overcast
10:36 AM 39.2 °F 35.0 °F 24.8 °F 56% 29.39 in 10.0 mi ENE 5.8 mph - N/A   Overcast
10:56 AM 39.2 °F 35.9 °F 24.8 °F 56% 29.39 in 10.0 mi ENE 4.6 mph - N/A   Overcast
11:16 AM 39.2 °F 33.6 °F 26.6 °F 61% 29.39 in 10.0 mi East 8.1 mph - N/A   Overcast
11:36 AM 39.2 °F 33.0 °F 26.6 °F 61% 29.39 in 10.0 mi East 9.2 mph - N/A   Overcast
11:56 AM 39.2 °F 33.6 °F 26.6 °F 61% 29.38 in 10.0 mi North 8.1 mph - N/A   Overcast
12:16 PM 37.4 °F 31.4 °F 28.4 °F 70% 29.38 in 10.0 mi NNW 8.1 mph - N/A   Overcast
12:36 PM 39.2 °F 37.0 °F 26.6 °F 61% 29.38 in 10.0 mi NNE 3.5 mph - N/A   Overcast
12:56 PM 41.0 °F 35.8 °F 26.6 °F 57% 29.37 in 10.0 mi NNE 8.1 mph - N/A   Overcast
1:16 PM 41.0 °F 35.2 °F 26.6 °F 57% 29.37 in 10.0 mi NNE 9.2 mph - N/A   Mostly Cloudy
1:36 PM 39.2 °F 33.6 °F 28.4 °F 65% 29.38 in 10.0 mi NE 8.1 mph - N/A   Overcast
1:56 PM 39.2 °F 33.6 °F 26.6 °F 61% 29.38 in 10.0 mi North 8.1 mph - N/A   Overcast
2:16 PM 39.2 °F 34.2 °F 28.4 °F 65% 29.38 in 10.0 mi NNE 6.9 mph - N/A   Overcast
2:36 PM 39.2 °F 37.0 °F 28.4 °F 65% 29.38 in 10.0 mi East 3.5 mph - N/A   Overcast
2:56 PM 39.2 °F 32.0 °F 30.2 °F 70% 29.39 in 10.0 mi East 11.5 mph 16.1 mph N/A   Overcast
3:16 PM 37.4 °F 30.3 °F 30.2 °F 75% 29.39 in 10.0 mi ENE 10.4 mph 17.3 mph N/A   Overcast
3:36 PM 35.6 °F 30.7 °F 33.8 °F 93% 29.40 in 10.0 mi NNE 5.8 mph - N/A   Overcast
3:56 PM 37.4 °F 33.8 °F 33.8 °F 87% 29.40 in 10.0 mi NNE 4.6 mph - N/A   Overcast
4:16 PM 37.4 °F 31.4 °F 32.0 °F 81% 29.40 in 10.0 mi East 8.1 mph - N/A   Overcast
4:36 PM 35.6 °F 29.9 °F 33.8 °F 93% 29.40 in 10.0 mi ENE 6.9 mph - N/A   Overcast
4:56 PM 35.6 °F 29.9 °F 33.8 °F 93% 29.40 in 7.0 mi North 6.9 mph - N/A   Overcast
5:16 PM 33.8 °F 27.7 °F 33.8 °F 100% 29.40 in 4.0 mi North 6.9 mph - N/A   Overcast
5:36 PM 33.8 °F 28.6 °F 33.8 °F 100% 29.40 in 3.0 mi NNW 5.8 mph - N/A   Overcast
5:56 PM 35.6 °F 29.9 °F 33.8 °F 93% 29.40 in 7.0 mi North 6.9 mph - 0.01 in   Overcast
6:16 PM 35.6 °F 32.8 °F 33.8 °F 93% 29.41 in 10.0 mi West 3.5 mph - N/A   Overcast
6:36 PM 35.6 °F - 33.8 °F 93% 29.41 in 10.0 mi Calm Calm - N/A   Overcast
6:56 PM 35.6 °F - 33.8 °F 93% 29.42 in 10.0 mi Calm Calm - N/A   Overcast
7:16 PM 35.6 °F - 33.8 °F 93% 29.42 in 10.0 mi Calm Calm - N/A   Overcast
7:36 PM 37.4 °F - 33.8 °F 87% 29.42 in 10.0 mi Calm Calm - N/A   Overcast
7:56 PM 37.4 °F - 33.8 °F 87% 29.42 in 10.0 mi Calm Calm - N/A   Overcast
8:16 PM 37.4 °F - 33.8 °F 87% 29.43 in 10.0 mi Calm Calm - N/A   Overcast
8:36 PM 37.4 °F - 35.6 °F 93% 29.43 in 10.0 mi Calm Calm - N/A   Overcast
8:56 PM 37.4 °F - 33.8 °F 87% 29.44 in 10.0 mi Calm Calm - N/A   Overcast
9:16 PM 37.4 °F 33.8 °F 33.8 °F 87% 29.44 in 10.0 mi NNE 4.6 mph - N/A   Overcast
9:36 PM 37.4 °F 32.8 °F 33.8 °F 87% 29.44 in 10.0 mi North 5.8 mph - N/A   Overcast
9:56 PM 35.6 °F 30.7 °F 33.8 °F 93% 29.44 in 10.0 mi NNE 5.8 mph - N/A   Overcast
10:16 PM 35.6 °F 30.7 °F 33.8 °F 93% 29.44 in 10.0 mi North 5.8 mph - N/A   Overcast
10:36 PM 35.6 °F 29.9 °F 35.6 °F 100% 29.43 in 4.0 mi North 6.9 mph - N/A   Overcast
10:56 PM 35.6 °F 30.7 °F 33.8 °F 93% 29.43 in 5.0 mi North 5.8 mph - N/A   Overcast
11:16 PM 35.6 °F 30.7 °F 33.8 °F 93% 29.44 in 5.0 mi NW 5.8 mph - N/A   Overcast
11:36 PM 35.6 °F 31.7 °F 33.8 °F 93% 29.44 in 5.0 mi West 4.6 mph - 0.01 in   Overcast
11:56 PM 35.6 °F - 33.8 °F 93% 29.44 in 4.0 mi Calm Calm - 0.02 in   Overcast